Connexion

Connexion à votre compte

Identifiant
Mot de passe
Maintenir la connexion active sur ce site
Création de compte
Profil utilisateur
(optionnel)
Annuler

Nous contacter

 Téléphone : +33 (0)4 79 54 41 81

Coordonnées détaillées et accès : cliquez ici

 
LFLB °C
    Ferienhaus Ostsee
[source: ADDS]
METAR
LFLB 100400Z AUTO VRB02KT CAVOK 16/12 Q1016 NOSIG =
TAF LFLB 092300Z 1000/1024 VRB04KT CAVOK BECMG 1010/1012 SCT053TCU TEMPO 1015/1024 VRB15G25KT 4000 SHRA SCT053TCU BKN100 PROB40 TEMPO 1015/1019 VRB25G45KT 2000 TSRA BKN050CB PROB30 TEMPO 1015/1017 1000 TSGR
TAF
TAF LFLB 092300Z 1000/1024 VRB04KT CAVOK BECMG 1010/1012 SCT053TCU TEMPO 1015/1024 VRB15G25KT 4000 SHRA SCT053TCU BKN100 PROB40 TEMPO 1015/1019 VRB25G45KT 2000 TSRA BKN050CB PROB30 TEMPO 1015/1017 1000 TSGR =
SR / SS: 03:57 / 19:26 UTC (Lever/Coucher du soleil le 2020-07-10)
JSN Boot template designed by JoomlaShine.com